Regional Weather Roundup
Issued by NWS Charleston, SC

Current Version | Previous Version | Text Only | Print | Product List | Glossary Off
Versions: 1 2 3 4 5 6 7 8 9 10 11 12 13 14 15 16 17 18 19 20 21 22 23 24 25 26 27 28 29 30 31 32 33 34 35 36 37 38 39 40 41 42 43 44 45 46 47 48 49 50

000
ASUS42 KCHS 030325
RWRCHS

REGIONAL WEATHER ROUNDUP
NATIONAL WEATHER SERVICE CHARLESTON SC
1100 PM EDT TUE SEP 02 2014

NOTE: "FAIR" INDICATES FEW OR NO CLOUDS BELOW 12,000 FEET WITH NO
SIGNIFICANT WEATHER AND/OR OBSTRUCTIONS TO VISIBILITY.

NOT ALL STATIONS ARE QUALITY CONTROLLED BY THE NATIONAL
WEATHER SERVICE. USE DATA WITH CAUTION...ESPECIALLY
DEWPOINT OBSERVATIONS.

SCZ027-030-031-034>040-042>050-030400-
...SOUTH CAROLINA...

CITY           SKY/WX    TMP DP  RH WIND       PRES   REMARKS
N CHARLESTON   MOCLDY    80  76  87 SW6       30.04R
WATERFRONT PRK   N/A     82 N/A N/A S10         N/A
FORT JOHNSON   NOT AVBL
MOUNT PLEASANT FAIR      81  75  83 S6        30.04R
JOHNS ISLAND   CLEAR     81  79  94 S8        30.04S
PINOPOLIS        N/A     79  73  83 S2        29.94S
MONCKS CORNER    N/A     75  75 100 CALM      30.04R
SUMMERVILLE    FAIR      73  73 100 CALM      30.05R
BEAUFORT MCAS  MOCLDY    77  74  90 CALM      30.04R
BEAUFORT ARPT  FAIR      77  77 100 CALM      30.04R
HILTON HEAD IS PTCLDY    75  75 100 CALM      30.06R
GEORGETOWN     NOT AVBL
WALTERBORO     MOCLDY    73 N/A N/A CALM      30.06R
ORANGEBURG     CLOUDY    75  71  87 CALM      30.06R
BARNWELL       FAIR      73  72  94 W7        30.05S
AIKEN          FAIR      72  72 100 SW6       30.10R
MANNING        FAIR      77  77 100 CALM      30.06R
KINGSTREE      NOT AVBL
COLUMBIA       CLOUDY    76  72  87 W7        30.04R
SUMTER         CLOUDY    76  71  84 SE3       30.04R
FLORENCE       MOCLDY    79  69  71 SW7       30.03R
MYRTLE BEACH   PTCLDY    82  73  74 SW7       30.05R
N MYRTLE BEACH PTCLDY    84  75  74 SW13      30.03R HX  92

$$

GAZ063-065-086>088-099>101-113>116-118-119-134-136>141-150-030400-
...GEORGIA...

CITY           SKY/WX    TMP DP  RH WIND       PRES   REMARKS
SAVANNAH ARPT  MOCLDY    76  73  91 CALM      30.05R
HUNTER AAF     MOCLDY    75  75 100 NW1       30.02S
FORT STEWART   CLOUDY    74  73  95 W2        30.04R
STATESBORO     NOT AVBL
SYLVANIA       PTCLDY    71  71  98 CALM      30.07R
CLAXTON        FAIR     N/A N/A N/A CALM      30.07R
THOMSON        MOCLDY    75  75  98 CALM      30.11S
AUGUSTA-BUSH   PTCLDY    71  70  96 S3        30.05R
AUGUSTA-DANIEL PTCLDY    75  71  87 CALM      30.07R
SWAINSBORO     FAIR      73  73 100 E3        30.07R
VIDALIA        CLOUDY    73  72  94 CALM      30.06R
ALMA           CLOUDY    74  72  93 SW3       30.06R
WAYCROSS       LGT RAIN  77  76  97 SW3       30.07S
JESUP            N/A     75  73  94 CALM      30.07R
BRUNSWICK      CLOUDY    75  72  88 CALM      30.06R
SAINT SIMONS   CLOUDY    77  76  96 CALM      30.05R

$$

SCZ027-028-034-036>038-045-046-048>050-GAZ119-141-030400-
...LAKE AND SUPPLEMENTAL COASTAL OBSERVATIONS...

STATION/POSITION TIME  TEMP    WIND        PRES    WAVE   SWELL
                       AIR SEA DIR/SP/G            HT/PER HT/PER/DIR
                 (UTC) (F)     (DEG/KT/KT) (MB)    (FT/S) (FT/S/D)
UPR LAKE MARION  NOT AVBL
WINYAH BAY       0300   81     220/  4     1016.0S
LAKE MURRAY      0300   77     260/  8/ 10 1016.9R
ACE BASIN NERRS  0300   76        CALM     1017.0S
FORT PULASKI     0300   78     260/  3/  4 1017.5R
SAPELO ISLAND    0300   78        CALM     1018.0R

$$

ANZ835-935-AMZ111-154-330-350-352-354-374-450-454-472-030400-
...C-MAN AND BUOY OBSERVATIONS...

STATION/POSITION TIME  TEMP    WIND        PRES    WAVE   SWELL
                       AIR SEA DIR/SP/G            HT/PER HT/PER/DIR
                 (UTC) (F)     (DEG/KT/KT) (MB)    (FT/S) (FT/S/D)
FOLLY BEACH CMAN 0300   82     190/ 13/ 15 1017.8R
BUOY 41004       0300   83 84  190/ 12/ 14 1016.8R   2/10   2/10
BUOY 41008       0300   84 85  180/ 12/ 14 1017.1F   2/ 8   2/ 80/ 8
5E ST. MARYS GA  0300      85                N/A     2/ 9   2/ 90/11
FRYING PAN BUOY  NOT AVBL
BUOY 41025       0300   81     220/ 16/ 17 1016.5R   4/ 4   2/ 80/10
CAPE LOOKOUT NC  0300   81     220/ 10/ 14 1016.9R
BUOY 41002       0249   81 83  210/ 10/ 12 1019.7R   3/12   3/ 80/12
BUOY 41010       0300   82 84  150/ 10/ 12 1018.0R   3/12   3/ 30/12
BUOY 41012       NOT AVBL
ST AUGUSTINE FL  0300   83     160/ 12/ 13 1018.0R
CAPERS NEARSHORE NOT AVBL
FRIPP NEARSHORE  NOT AVBL


$$


USA.gov is the U.S. government's official web portal to all federal, state and local government web resources and services.